When you browse on this site, cookies collect data to enhance your experience and personalize the content and advertising you see.
Visit our Privacy Policy to learn more. By continuing to use the site, you agree to this use of cookies and data.
  • In France
  • List of Countries
  • For 7 days
  • Water Temperature
  • Satellite Maps
  • Weather Map
  • Weather Widgets
  • user-avatar
    Login

    Hourly Weather Escaldes-Engordany

    Today, 24 January, Thursday

    Time Temperature Precipitation Wind Pressure Humidity
    00:00 -11°C° 0 mm 6 mps 623 mmHg 89%
    01:00 -11°C° 0.6 mm 6 mps 623 mmHg 89%
    02:00 -12°C° 0.6 mm 7 mps 624 mmHg 88%
    03:00 -12°C° 0.6 mm 7 mps 624 mmHg 87%
    04:00 -11°C° 0.5 mm 6 mps 624 mmHg 87%
    05:00 -11°C° 0.5 mm 6 mps 625 mmHg 87%
    06:00 -11°C° 0.5 mm 5 mps 625 mmHg 87%
    07:00 -11°C° 0.2 mm 5 mps 626 mmHg 85%
    08:00 -11°C° 0.2 mm 5 mps 626 mmHg 84%
    09:00 -11°C° 0.2 mm 5 mps 626 mmHg 82%
    10:00 -10°C° 0.1 mm 5 mps 627 mmHg 79%
    11:00 -10°C° 0.1 mm 5 mps 627 mmHg 77%
    12:00 -10°C° 0.1 mm 5 mps 628 mmHg 75%
    13:00 -8°C° 0.1 mm 5 mps 628 mmHg 75%
    14:00 -8°C° 0.1 mm 5 mps 628 mmHg 76%
    15:00 -8°C° 0.1 mm 5 mps 628 mmHg 76%
    16:00 -10°C° 0.1 mm 5 mps 628 mmHg 78%
    17:00 -11°C° 0.1 mm 5 mps 629 mmHg 81%
    18:00 -11°C° 0.1 mm 4 mps 629 mmHg 83%
    19:00 -11°C° 0 mm 4 mps 629 mmHg 81%
    20:00 -12°C° 0 mm 4 mps 630 mmHg 80%
    21:00 -12°C° 0 mm 4 mps 630 mmHg 78%
    22:00 -12°C° 0 mm 4 mps 630 mmHg 76%
    23:00 -12°C° 0 mm 4 mps 630 mmHg 74%

    Tomorrow, 25 January, Friday

    Time Temperature Precipitation Wind Pressure Humidity
    00:00 -12°C° 0 mm 4 mps 630 mmHg 72%
    01:00 -10°C° 0.1 mm 4 mps 631 mmHg 76%
    02:00 -9°C° 0.1 mm 4 mps 631 mmHg 80%
    03:00 -7°C° 0.1 mm 5 mps 632 mmHg 84%
    04:00 -6°C° 0.3 mm 5 mps 632 mmHg 85%
    05:00 -5°C° 0.3 mm 5 mps 632 mmHg 86%
    06:00 -4°C° 0.3 mm 5 mps 633 mmHg 87%
    07:00 -2°C° 0.4 mm 5 mps 633 mmHg 86%
    08:00 -1°C° 0.4 mm 5 mps 634 mmHg 85%
    09:00 -1°C° 0.4 mm 6 mps 634 mmHg 84%
    10:00 -1°C° 0.3 mm 6 mps 634 mmHg 83%
    11:00 +1°C° 0.3 mm 6 mps 635 mmHg 81%
    12:00 0°C° 0.3 mm 7 mps 635 mmHg 80%
    13:00 0°C° 0.1 mm 7 mps 635 mmHg 81%
    14:00 +1°C° 0.1 mm 6 mps 635 mmHg 82%
    15:00 +1°C° 0.1 mm 6 mps 635 mmHg 83%
    16:00 -1°C° 0 mm 6 mps 635 mmHg 85%
    17:00 -1°C° 0 mm 6 mps 635 mmHg 88%
    18:00 -1°C° 0 mm 5 mps 635 mmHg 90%
    19:00 -1°C° 0 mm 5 mps 636 mmHg 90%
    20:00 -1°C° 0 mm 5 mps 636 mmHg 90%
    21:00 -2°C° 0 mm 5 mps 637 mmHg 90%
    22:00 -2°C° 0 mm 5 mps 637 mmHg 90%
    23:00 -1°C° 0 mm 4 mps 637 mmHg 91%

    Day after tomorrow, 26 January, Saturday

    Time Temperature Precipitation Wind Pressure Humidity
    00:00 -1°C° 0 mm 4 mps 637 mmHg 91%
    01:00 -2°C° 0 mm 4 mps 637 mmHg 91%
    02:00 -2°C° 0 mm 4 mps 637 mmHg 91%
    03:00 -1°C° 0 mm 3 mps 637 mmHg 92%
    04:00 -1°C° 0 mm 3 mps 637 mmHg 92%
    05:00 -2°C° 0 mm 3 mps 637 mmHg 92%
    06:00 -2°C° 0 mm 2 mps 637 mmHg 92%
    07:00 -2°C° 0 mm 2 mps 637 mmHg 89%
    08:00 -1°C° 0 mm 2 mps 638 mmHg 86%
    09:00 +1°C° 0 mm 2 mps 638 mmHg 83%
    10:00 +2°C° 0 mm 2 mps 638 mmHg 81%
    11:00 +4°C° 0 mm 2 mps 639 mmHg 79%
    12:00 +7°C° 0 mm 1 mps 639 mmHg 78%
    13:00 +7°C° 0 mm 1 mps 639 mmHg 79%
    14:00 +7°C° 0 mm 1 mps 638 mmHg 80%
    15:00 +6°C° 0 mm 1 mps 638 mmHg 81%
    16:00 +4°C° 0 mm 1 mps 637 mmHg 82%
    17:00 +2°C° 0 mm 1 mps 636 mmHg 84%
    18:00 0°C° 0 mm 1 mps 635 mmHg 85%
    19:00 0°C° 0 mm 1 mps 635 mmHg 80%
    20:00 0°C° 0 mm 1 mps 635 mmHg 76%
    21:00 -3°C° 0 mm 2 mps 634 mmHg 71%
    22:00 -3°C° 0 mm 2 mps 634 mmHg 68%
    23:00 -3°C° 0 mm 2 mps 634 mmHg 65%

    27 January, Sunday

    Time Temperature Precipitation Wind Pressure Humidity
    00:00 -3°C° 0 mm 2 mps 634 mmHg 62%
    01:00 -3°C° 0 mm 2 mps 633 mmHg 63%
    02:00 -3°C° 0 mm 2 mps 633 mmHg 63%
    03:00 -3°C° 0 mm 2 mps 632 mmHg 63%
    04:00 -4°C° 0 mm 2 mps 631 mmHg 63%
    05:00 -4°C° 0 mm 2 mps 631 mmHg 64%
    06:00 -4°C° 0 mm 2 mps 630 mmHg 64%
    07:00 -1°C° 0 mm 1 mps 631 mmHg 65%
    08:00 +1°C° 0 mm 1 mps 631 mmHg 66%
    09:00 +2°C° 0 mm 1 mps 631 mmHg 67%
    10:00 +3°C° 0.1 mm 1 mps 631 mmHg 69%
    11:00 +4°C° 0.1 mm 1 mps 631 mmHg 72%
    12:00 +4°C° 0.1 mm 1 mps 631 mmHg 74%
    13:00 +4°C° 0.5 mm 1 mps 630 mmHg 77%
    14:00 +2°C° 0.5 mm 2 mps 630 mmHg 81%
    15:00 +1°C° 0.5 mm 2 mps 629 mmHg 84%
    16:00 -1°C° 0.2 mm 2 mps 628 mmHg 86%
    17:00 -2°C° 0.2 mm 2 mps 628 mmHg 88%
    18:00 -3°C° 0.2 mm 2 mps 627 mmHg 90%
    19:00 -3°C° 0.2 mm 2 mps 628 mmHg 90%
    20:00 -3°C° 0.2 mm 2 mps 628 mmHg 90%
    21:00 -3°C° 0.2 mm 2 mps 628 mmHg 90%
    22:00 -3°C° 0.4 mm 2 mps 628 mmHg 90%
    23:00 -4°C° 0.4 mm 3 mps 628 mmHg 90%

    28 January, Monday

    Time Temperature Precipitation Wind Pressure Humidity
    00:00 -5°C° 0.4 mm 3 mps 628 mmHg 91%
    01:00 -5°C° 0.2 mm 3 mps 628 mmHg 90%
    02:00 -6°C° 0.2 mm 3 mps 628 mmHg 90%
    03:00 -7°C° 0.2 mm 3 mps 627 mmHg 89%
    04:00 -6°C° 0.3 mm 3 mps 628 mmHg 88%
    05:00 -6°C° 0.3 mm 3 mps 628 mmHg 87%
    06:00 -7°C° 0.3 mm 4 mps 628 mmHg 87%
    07:00 -7°C° 0.4 mm 4 mps 629 mmHg 85%
    08:00 -6°C° 0.4 mm 5 mps 629 mmHg 83%
    09:00 -6°C° 0.4 mm 6 mps 630 mmHg 81%
    10:00 -6°C° 0.3 mm 6 mps 630 mmHg 79%
    11:00 -6°C° 0.3 mm 7 mps 630 mmHg 78%
    12:00 -6°C° 0.3 mm 7 mps 631 mmHg 76%
    13:00 -6°C° 0.2 mm 7 mps 631 mmHg 77%
    14:00 -7°C° 0.2 mm 7 mps 631 mmHg 78%
    15:00 -7°C° 0.2 mm 7 mps 631 mmHg 79%
    16:00 -6°C° 0.4 mm 6 mps 631 mmHg 81%
    17:00 -8°C° 0.4 mm 6 mps 632 mmHg 83%
    18:00 -7°C° 0.4 mm 5 mps 632 mmHg 85%
    19:00 -7°C° 0.6 mm 5 mps 632 mmHg 85%
    20:00 -7°C° 0.6 mm 5 mps 633 mmHg 84%
    21:00 -7°C° 0.6 mm 4 mps 633 mmHg 84%
    22:00 -7°C° 0.7 mm 4 mps 633 mmHg 84%
    23:00 -7°C° 0.7 mm 4 mps 633 mmHg 84%

    29 January, Tuesday

    Time Temperature Precipitation Wind Pressure Humidity
    00:00 -7°C° 0.7 mm 4 mps 633 mmHg 84%
    01:00 -7°C° 0.2 mm 4 mps 633 mmHg 84%
    02:00 -8°C° 0.2 mm 4 mps 633 mmHg 84%
    03:00 -8°C° 0.2 mm 5 mps 633 mmHg 84%
    04:00 -8°C° 0 mm 4 mps 632 mmHg 85%
    05:00 -8°C° 0 mm 3 mps 632 mmHg 86%
    06:00 -9°C° 0 mm 3 mps 632 mmHg 87%
    07:00 -6°C° 0.2 mm 2 mps 633 mmHg 86%
    08:00 -4°C° 0.2 mm 2 mps 633 mmHg 84%
    09:00 -1°C° 0.2 mm 1 mps 634 mmHg 83%
    10:00 -2°C° 0.7 mm 2 mps 634 mmHg 83%
    11:00 -1°C° 0.7 mm 2 mps 635 mmHg 83%
    12:00 -1°C° 0.7 mm 3 mps 635 mmHg 82%
    13:00 -1°C° 0.3 mm 3 mps 635 mmHg 81%
    14:00 -2°C° 0.3 mm 4 mps 635 mmHg 80%
    15:00 -2°C° 0.3 mm 4 mps 635 mmHg 79%
    16:00 -2°C° 0 mm 3 mps 635 mmHg 82%
    17:00 -4°C° 0 mm 3 mps 635 mmHg 86%
    18:00 -5°C° 0 mm 3 mps 635 mmHg 89%
    19:00 -5°C° 0 mm 3 mps 635 mmHg 89%
    20:00 -4°C° 0 mm 2 mps 635 mmHg 90%
    21:00 -4°C° 0 mm 2 mps 636 mmHg 90%
    22:00 -5°C° 0 mm 2 mps 635 mmHg 90%
    23:00 -5°C° 0 mm 2 mps 635 mmHg 90%
    Show more